This is the latest recevied weather packets stored in our database for station/object K4PAD. If no packets are shown the sender has not sent any weather packets the latest 10 day(s).
| Time | Temp. | Humidity | Pressure | Rain* | Wind** | Luminosity | Snow |
|---|---|---|---|---|---|---|---|
| 1778024910 | 23.89° C | 53% | 1016.6 hPa | 0 mm | - | 19 W/m² | - |
| 1778024608 | 23.89° C | 52% | 1016.5 hPa | 0 mm | - | 25 W/m² | - |
| 1778024305 | 24.44° C | 51% | 1016.5 hPa | 0 mm | - | 32 W/m² | - |
| 1778024003 | 24.44° C | 50% | 1016.5 hPa | 0 mm | - | 42 W/m² | - |
| 1778023700 | 25° C | 49% | 1016.4 hPa | 0 mm | - | 48 W/m² | - |
| 1778023397 | 25° C | 49% | 1016.5 hPa | 0 mm | - | 50 W/m² | - |
| 1778023094 | 25° C | 49% | 1016.5 hPa | 0 mm | - | 58 W/m² | - |
| 1778022792 | 25.56° C | 48% | 1016.5 hPa | 0 mm | - | 58 W/m² | - |
| 1778022490 | 25.56° C | 47% | 1016.4 hPa | 0 mm | - | 82 W/m² | - |
| 1778022186 | 25.56° C | 47% | 1016.4 hPa | 0 mm | - | 92 W/m² | - |
| 1778021883 | 25.56° C | 47% | 1016.4 hPa | 0 mm | - | 124 W/m² | - |
| 1778021581 | 26.11° C | 46% | 1016.2 hPa | 0 mm | - | 128 W/m² | - |
| 1778021275 | 26.11° C | 46% | 1016.5 hPa | 0 mm | - | 120 W/m² | - |
| 1778020973 | 26.11° C | 46% | 1016.4 hPa | 0 mm | - | 161 W/m² | - |
| 1778020671 | 26.11° C | 46% | 1016.4 hPa | 0 mm | - | 185 W/m² | - |
| 1778020367 | 26.11° C | 46% | 1016.3 hPa | 0 mm | - | 206 W/m² | - |
| 1778020063 | 26.67° C | 45% | 1016.4 hPa | 0 mm | - | 216 W/m² | - |
| 1778019759 | 26.67° C | 46% | 1016.3 hPa | 0 mm | - | 244 W/m² | - |
| 1778019456 | 26.67° C | 46% | 1016.3 hPa | 0 mm | - | 267 W/m² | - |
| 1778019153 | 26.67° C | 47% | 1016.3 hPa | 0 mm | - | 286 W/m² | - |
| 1778018850 | 26.67° C | 47% | 1016.3 hPa | 0 mm | - | 320 W/m² | - |
| 1778018547 | 26.67° C | 46% | 1016.2 hPa | 0 mm | - | 339 W/m² | - |
| 1778018245 | 27.22° C | 45% | 1016.2 hPa | 0 mm | - | 343 W/m² | - |
| 1778017943 | 27.22° C | 45% | 1016.3 hPa | 0 mm | - | 368 W/m² | - |
| 1778017640 | 27.22° C | 44% | 1016.1 hPa | 0 mm | - | 377 W/m² | - |
* Rain latest hour (hover to see other rain measurements)
** Current wind speed in m/s (hover to see current wind gust speed)